Weather History for Phuket, Thailand

Change the Weather History Date:

Saturday, July 26, 2014

  Actual Average Record
Temperature  
Mean Temperature 81 °F -  
Max Temperature 89 °F 87 °F 95 °F (1999)
Min Temperature 73 °F 78 °F 72 °F (2013)
Cooling Degree Days 16    
Growing Degree Days 31 (Base 50)    
Moisture  
Dew Point 75 °F    
Average Humidity 81    
Maximum Humidity 95    
Minimum Humidity 62    
Precipitation  
Precipitation 1.50 in 0.36 in - ()
Sea Level Pressure  
Sea Level Pressure 29.84 in    
Wind  
Wind Speed 4 mph ()    
Max Wind Speed 16 mph    
Max Gust Speed -    
Visibility 4.8 miles    
Events Rain , Thunderstorm    
Averages and records for this station are not official NWS values.
T = Trace of Precipitation, MM = Missing Value Source: Averaged Metar Reports

Daily Weather History Graph

Daily Weather History Graph

Search for Another Location

Airport:

Trip Planner

Search our weather history database for the weather conditions in past years. The results will help you decide how hot, cold, wet, or windy it might be!

Date:

Astronomy

Jul. 26, 2014 Rise Set
Actual Time 6:18 AM ICT 6:48 PM ICT
Civil Twilight 5:55 AM ICT 7:10 PM ICT
Nautical Twilight 5:29 AM ICT 7:36 PM ICT
Astronomical Twilight 5:03 AM ICT 8:02 PM ICT
Moon 5:34 AM ICT 6:16 PM ICT
Length of Visible Light 13h 14m
Length of Day
12h 30m
Waning Crescent, 1% of the Moon is Illuminated
Jul 26
Waning Crescent
Jul 27
New
Aug 4
First Quarter
Aug 11
Full
Aug 17
Last Quarter

Hourly Weather History & Observations

Time (ICT) Temp. Heat Index Dew Point Humidity Pressure Visibility Wind Dir Wind Speed Gust Speed Precip Events Conditions
12:00 AM 75.2 °F - 73.4 °F 94% 29.83 in 5.0 mi East 2.3 mph - N/A   Mostly Cloudy
12:30 AM 75.2 °F - 73.4 °F 94% 29.83 in 5.0 mi Variable 1.2 mph - N/A   Mostly Cloudy
1:00 AM 76 °F - 75 °F 95% 29.80 in 6 mi Calm Calm - -   Partly Cloudy
1:00 AM 75.2 °F - 73.4 °F 94% 29.83 in 5.0 mi Variable 1.2 mph - N/A   Mostly Cloudy
1:30 AM 75.2 °F - 73.4 °F 94% 29.83 in 5.0 mi Calm Calm - N/A   Mostly Cloudy
2:00 AM 75.2 °F - 73.4 °F 94% 29.83 in 5.0 mi Calm Calm - N/A   Mostly Cloudy
2:30 AM 75.2 °F - 73.4 °F 94% 29.83 in 5.0 mi Variable 1.2 mph - N/A   Mostly Cloudy
3:00 AM 77.0 °F - 73.4 °F 89% 29.83 in 5.0 mi Variable 3.5 mph - N/A   Mostly Cloudy
3:30 AM 77.0 °F - 73.4 °F 89% 29.80 in 5.0 mi Variable 1.2 mph - N/A   Mostly Cloudy
4:00 AM 82 °F - 74 °F 72% 29.78 in 6 mi Calm Calm - -   Scattered Clouds
4:00 AM 77.0 °F - 73.4 °F 89% 29.80 in 5.0 mi Variable 2.3 mph - N/A   Mostly Cloudy
4:30 AM 77.0 °F - 73.4 °F 89% 29.80 in 5.0 mi Variable 1.2 mph - N/A   Mostly Cloudy
5:00 AM 77.0 °F - 73.4 °F 89% 29.80 in 5.0 mi Calm Calm - N/A   Mostly Cloudy
5:30 AM 77.0 °F - 73.4 °F 89% 29.80 in 5.0 mi Variable 2.3 mph - N/A   Mostly Cloudy
6:00 AM 77.0 °F - 73.4 °F 89% 29.80 in 5.0 mi SSE 3.5 mph - N/A   Mostly Cloudy
6:30 AM 77.0 °F - 73.4 °F 89% 29.83 in 5.0 mi Variable 2.3 mph - N/A   Mostly Cloudy
7:00 AM 78 °F - 76 °F 94% 29.79 in 6 mi Calm Calm - -   Partly Cloudy
7:00 AM 77.0 °F - 73.4 °F 89% 29.83 in 5.0 mi Variable 1.2 mph - N/A   Mostly Cloudy
7:30 AM 78.8 °F - 75.2 °F 89% 29.86 in 5.0 mi WSW 3.5 mph - N/A   Mostly Cloudy
8:00 AM 78.8 °F - 75.2 °F 89% 29.86 in 5.0 mi Variable 2.3 mph - N/A   Mostly Cloudy
8:30 AM 82.4 °F 90.9 °F 77.0 °F 84% 29.86 in 5.0 mi Calm Calm - N/A   Mostly Cloudy
9:00 AM 82.4 °F 90.9 °F 77.0 °F 84% 29.89 in 5.0 mi Variable 1.2 mph - N/A   Mostly Cloudy
9:30 AM 84.2 °F 92.3 °F 75.2 °F 74% 29.89 in 5.0 mi West 6.9 mph - N/A   Mostly Cloudy
10:00 AM 87 °F - 76 °F 62% 29.81 in 6 mi West 4.6 mph - -   Mist
10:00 AM 86.0 °F 93.4 °F 73.4 °F 66% 29.89 in 5.0 mi West 10.4 mph - N/A   Mostly Cloudy
10:30 AM 86.0 °F 95.1 °F 75.2 °F 70% 29.89 in 5.0 mi WNW 9.2 mph - N/A   Mostly Cloudy
11:00 AM 84.2 °F 92.3 °F 75.2 °F 74% 29.89 in 3.1 mi West 11.5 mph - N/A Rain Rain
11:30 AM 82.4 °F 90.9 °F 77.0 °F 84% 29.89 in 5.0 mi WSW 4.6 mph - N/A   Mostly Cloudy
12:00 PM 86.0 °F 95.1 °F 75.2 °F 70% 29.86 in 5.0 mi West 12.7 mph - N/A   Mostly Cloudy
12:30 PM 87.8 °F 99.7 °F 77.0 °F 70% 29.86 in 5.0 mi West 12.7 mph - N/A   Mostly Cloudy
1:00 PM 88 °F - 78 °F 66% 29.84 in 5 mi West 5.8 mph - -   Scattered Clouds
1:00 PM 86.0 °F 96.9 °F 77.0 °F 74% 29.86 in 5.0 mi West 11.5 mph - N/A   Mostly Cloudy
1:30 PM 87.8 °F 97.6 °F 75.2 °F 66% 29.86 in 5.0 mi West 16.1 mph - N/A   Mostly Cloudy
2:00 PM 86.0 °F 96.9 °F 77.0 °F 74% 29.83 in 5.0 mi West 16.1 mph - N/A   Mostly Cloudy
2:30 PM 86.0 °F 95.1 °F 75.2 °F 70% 29.83 in 5.0 mi WSW 15.0 mph - N/A   Mostly Cloudy
3:00 PM 86.0 °F 95.1 °F 75.2 °F 70% 29.83 in 5.0 mi West 15.0 mph - N/A   Mostly Cloudy
3:30 PM 84.2 °F 92.3 °F 75.2 °F 74% 29.83 in 5.0 mi West 15.0 mph - N/A   Mostly Cloudy
4:00 PM 86 °F - 77 °F 69% 29.79 in 5 mi WSW 4.6 mph - -   Mist
4:00 PM 86.0 °F 95.1 °F 75.2 °F 70% 29.80 in 5.0 mi West 12.7 mph - N/A   Mostly Cloudy
4:30 PM 84.2 °F 92.3 °F 75.2 °F 74% 29.80 in 5.0 mi West 12.7 mph - N/A   Mostly Cloudy
5:00 PM 84.2 °F 92.3 °F 75.2 °F 74% 29.80 in 5.0 mi West 15.0 mph - N/A   Mostly Cloudy
5:30 PM 84.2 °F 92.3 °F 75.2 °F 74% 29.83 in 5.0 mi West 15.0 mph - N/A   Mostly Cloudy
6:00 PM 84.2 °F 92.3 °F 75.2 °F 74% 29.83 in 5.0 mi West 16.1 mph - N/A   Mostly Cloudy
6:30 PM 86.0 °F 95.1 °F 75.2 °F 70% 29.83 in 5.0 mi West 15.0 mph - N/A   Mostly Cloudy
7:00 PM 85 °F - 78 °F 73% 29.81 in 4 mi West 3.5 mph - - Rain Light Rain
7:00 PM 82.4 °F 90.9 °F 77.0 °F 84% 29.83 in 4.3 mi West 13.8 mph - N/A Rain Rain
7:30 PM 82.4 °F 90.9 °F 77.0 °F 84% 29.83 in 3.1 mi WNW 12.7 mph - N/A Rain Rain
8:00 PM 82.4 °F 90.9 °F 77.0 °F 84% 29.86 in 4.3 mi NW 12.7 mph - N/A Thunderstorm Thunderstorm
8:30 PM 77.0 °F - 73.4 °F 89% 29.89 in 1.9 mi WSW 8.1 mph - N/A Rain Rain
9:00 PM 75.2 °F - 71.6 °F 89% 29.89 in 3.7 mi ESE 12.7 mph - N/A Rain Rain
10:00 PM 76 °F - 75 °F 95% 29.92 in 4 mi Calm Calm - - Rain , Thunderstorm Thunderstorms and Rain
11:00 PM 75.2 °F - 71.6 °F 89% 29.92 in 4.3 mi Calm Calm - N/A Rain Rain
11:30 PM 75.2 °F - 71.6 °F 89% 29.92 in 3.7 mi ESE 3.5 mph - N/A Rain Rain